Location: Unspecified
(0.0000°N, 0.0000°E)
Time: 02:25:18
(UTC+02:00)

ASC 2 Rocket - Visible Passes

Search period start: 31 August 2016 00:00
Search period end: 10 September 2016 00:00
Orbit: 556 x 2346 km, 24.0° (Epoch: 30 August)

Date Brightness Start Highest point End Pass type
(mag) Time Alt. Az. Time Alt. Az. Time Alt. Az.
31 Aug 7.6 02:55:31 13° NE 02:55:31 13° NE 02:56:53 10° NE visible
31 Aug 6.8 04:50:19 27° NNW 04:51:08 27° N 05:02:16 10° NE visible
31 Aug 7.1 06:48:49 10° NW 06:59:17 24° N 07:08:29 10° NE visible
31 Aug 5.3 21:23:27 10° SSW 21:28:10 24° SSE 21:28:24 24° SSE visible
01 Sep 7.1 03:47:58 23° NNE 03:47:58 23° NNE 03:54:07 10° NE visible
01 Sep 7.1 05:42:46 16° NW 05:50:18 24° N 06:00:27 10° NE visible
01 Sep 5.6 20:19:50 10° S 20:21:55 12° SSE 20:24:16 10° SE visible
01 Sep 5.4 22:18:24 10° SW 22:21:21 30° SSW 22:21:21 30° SSW visible
02 Sep 7.7 02:45:39 10° NE 02:45:39 10° NE 02:45:45 10° NE visible
02 Sep 6.9 04:40:27 25° N 04:41:13 25° N 04:52:01 10° NE visible
02 Sep 7.1 06:38:20 10° NW 06:49:27 26° N 06:59:23 10° ENE visible
02 Sep 4.9 21:13:36 10° SSW 21:18:16 29° SSE 21:19:30 27° SE visible
02 Sep 6.7 23:14:09 10° WSW 23:14:21 11° WSW 23:14:21 11° WSW visible
03 Sep 7.2 03:38:10 20° NNE 03:38:10 20° NNE 03:43:20 10° NE visible
03 Sep 7.1 05:32:59 16° NNW 05:40:26 25° N 05:50:54 10° NE visible
03 Sep 6.9 07:35:57 10° NW 07:48:12 34° NNE 07:58:16 10° ENE visible
03 Sep 4.7 22:08:47 10° SW 22:12:31 45° SW 22:12:31 45° SW visible
04 Sep 7.0 04:30:46 24° N 04:31:21 24° N 04:41:54 10° NE visible
04 Sep 7.0 06:27:43 10° NW 06:39:28 29° NNE 06:50:14 10° ENE visible
04 Sep 4.3 21:03:49 10° SW 21:08:24 37° SSE 21:10:44 28° ESE visible
04 Sep 6.4 23:04:48 10° WSW 23:05:35 15° WSW 23:05:35 15° WSW visible
05 Sep 7.3 03:28:36 17° NNE 03:28:36 17° NNE 03:32:41 10° NE visible
05 Sep 7.0 05:23:26 18° NNW 05:30:31 26° N 05:41:25 10° ENE visible
05 Sep 6.8 07:24:56 10° NW 07:38:02 40° NNE 07:49:03 10° E visible
05 Sep 4.0 21:59:19 10° WSW 22:03:49 70° WSW 22:03:49 70° WSW visible
06 Sep 7.0 04:21:20 23° N 04:21:31 23° N 04:31:58 10° NE visible
06 Sep 6.9 06:17:03 10° NW 06:29:20 34° NNE 06:40:56 10° ENE visible
06 Sep 3.7 20:54:09 10° SW 20:58:36 52° SSE 21:02:04 23° E visible
06 Sep 6.2 22:55:41 10° W 22:56:55 17° W 22:56:55 17° W visible
07 Sep 7.4 03:19:18 15° NE 03:19:18 15° NE 03:22:11 10° NE visible
07 Sep 6.9 05:14:08 21° NNW 05:20:28 28° NNE 05:31:56 10° ENE visible
07 Sep 6.6 07:13:57 10° NW 07:27:40 48° NNE 07:39:35 10° E visible
07 Sep 3.9 21:50:01 10° WSW 21:54:53 63° NNW 21:55:11 62° N visible
08 Sep 7.0 04:12:10 24° NNE 04:12:10 24° NNE 04:22:10 10° ENE visible
08 Sep 6.7 06:07:01 12° NW 06:19:02 39° NNE 06:31:27 10° E visible
08 Sep 3.2 20:44:36 10° WSW 20:48:54 78° SSE 20:53:26 16° ENE visible
08 Sep 6.1 22:46:50 10° WNW 22:48:18 18° WNW 22:48:18 18° WNW visible
09 Sep 7.5 03:10:17 13° NE 03:10:17 13° NE 03:11:55 10° NE visible
09 Sep 6.8 05:05:08 25° NNW 05:10:19 32° NNE 05:22:22 10° ENE visible
09 Sep 6.4 07:03:05 10° NW 07:17:06 57° NNE 07:29:52 10° E visible
09 Sep 4.4 21:40:55 10° W 21:45:19 41° NNW 21:46:32 36° N visible
